THORAD AGENA D DEB, 5129

Orbit data source: Space-Track

THORAD AGENA D DEB, 5129 is space debris in SSO originally from a launch on Wed, 08 Apr 1970 UTC launched from the Air Force Western Test Range (AFWTR). Debris objects in space refer to the collection of defunct objects orbiting the Earth. Examples of debris include non-operational satellites, rocket bodies, and fragments generated from explosions, collisions, or faulty payload assembly.

Loading next visibility...
Identifier
5129, 1970-025JN
Orbit
SSO
Country
Flag of USUS
Related business
Manufacturer
Unknown
Mission
Spacecraft
Bus & Motor
Unknown
Mass
Unknown
Launch date (UTC)
1970-04-08 (56 years ago)
Launch vehicle
Unknown
Launch site
Air Force Western Test Range (AFWTR)
Object type
Payload
Rocket body
Debris
Shape & HBR
Unknown shape, 0.1 m
Radar Cross Section
Small (<0.1 m²)

Expand to show TLE details & history
Last TLE update: 12 hours ago

TLE from 12 hours ago
0 THORAD AGENA D DEB
1 05129U 70025JN  26095.21595924  .00002455  00000-0  31279-2 0  9990
2 05129  99.3071 189.3265 0190022 261.6279 125.4780 13.56936790723748
Epoch: 2026-04-05T05:10Z
TLE epoch observation values (Epoch: 2026-04-05T05:10:58.878Z)
Latitude
28.48314°
Longitude
-87.0188°
Altitude
1,133.922 km
Speed
7.247 km/s
True Right ascension
12h 17m 00s
True Declination
28° 20' 47"
Sunlit
Object was in full shadow at epoch
Visualization orbit readout
Latitude
Unknown
Longitude
Unknown
Altitude
Unknown
Speed
Unknown
Apparent Right ascension
Unknown
Apparent Declination
Unknown
Sunlit
N/A
Visualization observer readout
Local Sidereal Time
23:13:32
Azimuth
Unknown
Elevation
Unknown
Doppler factor
Unknown
Orbital elements
Apogee altitude
1,185.155 km
Perigee altitude
903.077 km
Semi-major axis
7,422.253 km
Eccentricity
0.019
Inclination
99.3071°
RAAN
189.3265°
Arg. of periapsis
261.6279°
True anomaly
127.22682°
Mean anomaly
125.478°
Eccentric anomaly
126.35483°
Mean motion
3.39422 °/min
Orbital period
106.06 mins
BSTAR
0.0031279
Loading maneuver chart data...
Computing Atmospheric mass density...

Documentation

Showing up to 5 results
|